Terug naar catalogus

STARLINK-3350

ActiefCommunicatieVLEO
NORAD 51105·PAYLOAD·🇺🇸 United States

Gelanceerd Jan 19, 2022 vanaf Cape Canaveral Space Force Station

Loading…

Volgende Passages (komende 24 uur)

TLE

VersSource: CelesTrak SupGP

Epoch: Sep 15, 2026, 01:12 UTC

1 51105C 22005B   26258.05048611  .00014098  00000+0  40342-3 0  2584
2 51105  53.1577 151.0372 0001283  83.8798 233.1212 15.35387016    12

Volg STARLINK-3350 in realtime met AllMySat

Download on the App Store